Cosmos 1953 - Orbit

View from above orbital plane
View from above orbital plane
View from above satellite
View from above satellite

Ground track
Ground track

The orbit data is extracted from the following two-line orbital elements,

1 19210U 88050A   13137.77642023  .00002909  00000-0  23339-3 0  1018
2 19210 082.5216 034.4554 0013780 294.7820 065.1970 14.99692753353795
Epoch (UTC): 17 May 2013 18:38:02
Eccentricity: 0.0013780
inclination: 82.5216°
perigee height: 558 km
apogee height: 577 km
right ascension of ascending node: 34.4554°
argument of perigee: 294.7820°
revolutions per day: 14.99692753
mean anomaly at epoch: 65.1970°
orbit number at epoch: 35379

The dashed part of the orbit path shows where the satellite is in the earth's shadow,  

Developed and maintained by Chris Peat, Heavens-Above GmbH. Please read the updated FAQ before sending e-mail. Imprint. DLR